ORBCOMM-X 1 21576U 91050C 26074.63401732 .00000276 00000+0 94139-4 0 9995 2 21576 98.3055 140.2326 0004851 88.7591 271.4156 14.43521550821273 ORBCOMM FM01 1 23545U 95017A 26074.48901475 .00005520 00000+0 51535-3 0 9991 2 23545 69.9606 115.3514 0007419 270.5984 89.4323 14.94706632652984 ORBCOMM FM02 1 23546U 95017B 26074.58247954 .00006371 00000+0 56199-3 0 9994 2 23546 69.9626 133.0821 0008748 271.2737 88.7419 14.96841965652681 ORBCOMM FM08 1 25112U 97084A 26074.49360662 .00001428 00000+0 42812-3 0 9998 2 25112 45.0124 144.3118 0007485 202.6659 157.3863 14.47004003480654 ORBCOMM FM10 1 25113U 97084B 26074.51968020 .00001127 00000+0 34832-3 0 9993 2 25113 45.0141 147.0983 0004897 176.8490 183.2393 14.46725510655790 ORBCOMM FM11 1 25114U 97084C 26074.50326331 .00001286 00000+0 39394-3 0 9990 2 25114 45.0128 148.3159 0005698 174.4305 185.6611 14.46462260480744 ORBCOMM FM12 1 25115U 97084D 26074.59973835 .00001211 00000+0 37307-3 0 9997 2 25115 45.0135 147.5709 0004781 177.1287 182.9593 14.46490142480554 ORBCOMM FM09 1 25116U 97084E 26074.59067004 .00001218 00000+0 37641-3 0 9998 2 25116 45.0138 148.8663 0005484 159.7258 200.3813 14.46312926480751 ORBCOMM FM05 1 25117U 97084F 26074.50755379 .00001228 00000+0 37320-3 0 9994 2 25117 45.0133 144.2066 0002951 202.2253 157.8472 14.47111510479896 ORBCOMM FM06 1 25118U 97084G 26074.56598946 .00001400 00000+0 41815-3 0 9992 2 25118 45.0122 143.3204 0002377 223.4811 274.9014 14.47293963480827 ORBCOMM FM07 1 25119U 97084H 26074.55125212 .00001269 00000+0 38265-3 0 9992 2 25119 45.0117 144.1313 0003343 189.1717 170.9075 14.47296598480817 ORBCOMM FM03 1 25158U 98007B 26074.66843359 .00000881 00000+0 34944-3 0 9991 2 25158 107.9625 333.6018 0042816 134.6166 225.8479 14.35316777462985 ORBCOMM FM04 1 25159U 98007C 26074.53722697 .00000769 00000+0 31037-3 0 9994 2 25159 107.9612 336.7337 0038625 132.0217 228.4222 14.35541352463156 ORBCOMM FM17 1 25413U 98046A 26074.62689247 .00000774 00000+0 31371-3 0 9990 2 25413 44.9945 55.8965 0000855 184.5990 175.4850 14.35756431442171 ORBCOMM FM18 1 25414U 98046B 26074.39028066 .00001086 00000+0 39065-3 0 9996 2 25414 44.9938 326.9358 0003599 216.0983 143.9623 14.39461435443319 ORBCOMM FM19 1 25415U 98046C 26073.97776137 .00001216 00000+0 43373-3 0 9991 2 25415 44.9956 331.3040 0002281 209.7112 267.1320 14.39288018443203 ORBCOMM FM20 1 25416U 98046D 26074.43156153 .00000784 00000+0 30386-3 0 9993 2 25416 44.9955 336.0534 0000901 309.7962 50.2807 14.37908739443291 ORBCOMM FM16 1 25417U 98046E 26074.63976030 .00001056 00000+0 37812-3 0 9994 2 25417 44.9945 322.8294 0003609 236.1439 123.9067 14.39851893443361 ORBCOMM FM15 1 25418U 98046F 26073.01963574 .00000484 00000+0 19921-3 0 9990 2 25418 44.9981 336.5132 0003228 233.3894 126.6658 14.39469327443112 ORBCOMM FM14 1 25419U 98046G 26073.93390781 .00001236 00000+0 43443-3 0 9998 2 25419 44.9968 329.5458 0002057 235.4971 124.5684 14.39912946443227 ORBCOMM FM13 1 25420U 98046H 26074.43934944 .00000912 00000+0 34208-3 0 9990 2 25420 44.9988 337.9541 0003979 210.7801 149.2814 14.38461997442287 ORBCOMM FM21 1 25475U 98053A 26074.23917484 .00000836 00000+0 32031-3 0 9993 2 25475 45.0080 65.2278 0001435 250.8793 109.1900 14.38026806436257 ORBCOMM FM22 1 25476U 98053B 26074.61785175 .00001017 00000+0 37043-3 0 9996 2 25476 45.0077 55.9014 0001716 193.2569 166.8235 14.39258384436363 ORBCOMM FM23 1 25477U 98053C 26074.26757774 .00001031 00000+0 38202-3 0 9996 2 25477 45.0081 66.7538 0001287 209.9180 150.1595 14.38290416436419 ORBCOMM FM24 1 25478U 98053D 26074.23051843 .00001116 00000+0 40437-3 0 9995 2 25478 45.0077 63.1406 0001460 225.2722 134.8008 14.38941875436472 ORBCOMM FM25 1 25479U 98053E 26074.27712377 .00001100 00000+0 39963-3 0 9991 2 25479 45.0072 61.2350 0003504 195.7928 164.2812 14.38901859436776 ORBCOMM FM26 1 25480U 98053F 26074.26906997 .00000885 00000+0 33746-3 0 9997 2 25480 45.0070 59.8098 0005781 202.8362 157.2229 14.37832736436656 ORBCOMM FM27 1 25481U 98053G 26074.39708437 .00001155 00000+0 41695-3 0 9994 2 25481 45.0054 60.7586 0001878 277.7737 82.2899 14.38947079436728 ORBCOMM FM28 1 25482U 98053H 26074.47684189 .00000892 00000+0 33183-3 0 9991 2 25482 45.0073 357.5806 0004121 241.8377 118.2055 14.39041227437421 ORBCOMM FM30 1 25980U 99065A 26074.50618083 .00000798 00000+0 30813-3 0 9994 2 25980 45.0305 244.7917 0005943 283.2328 76.7857 14.37993731373499 ORBCOMM FM31 1 25981U 99065B 26074.42317047 .00000834 00000+0 32052-3 0 9990 2 25981 45.0217 238.6253 0003234 306.6099 53.4452 14.37915905373033 ORBCOMM FM32 1 25982U 99065C 26074.50907377 .00000710 00000+0 28488-3 0 9992 2 25982 45.0148 256.6041 0005453 307.9940 52.0415 14.36977718373613 ORBCOMM FM33 1 25983U 99065D 26074.63424957 .00000767 00000+0 28175-3 0 9990 2 25983 45.0276 147.6271 0007924 334.6184 25.4276 14.40801480375205 ORBCOMM FM36 1 25984U 99065E 26074.46060868 .00001087 00000+0 39472-3 0 9997 2 25984 45.0383 244.4700 0003385 212.3254 147.7388 14.38997674373483 ORBCOMM FM35 1 25985U 99065F 26074.50355212 .00000949 00000+0 35839-3 0 9992 2 25985 45.0387 251.5398 0002994 310.4076 49.6512 14.37887068373828 ORBCOMM FM34 1 25986U 99065G 26074.54420904 .00000752 00000+0 29425-3 0 9994 2 25986 45.0381 251.8618 0003602 255.3899 104.6551 14.37797271373942 ORBCOMM FM38 1 33060U 08031A 26074.52038464 .00001518 00000+0 21247-3 0 9998 2 33060 48.4383 100.8108 0003947 136.4314 223.6914 14.82759078954991 ORBCOMM FM41 1 33061U 08031B 26074.49598111 .00001433 00000+0 20428-3 0 9991 2 33061 48.4419 109.6884 0003113 117.5698 26.1333 14.82291719954466 ORBCOMM FM29 1 33062U 08031C 26074.52343862 .00001370 00000+0 19571-3 0 9994 2 33062 48.4370 116.9718 0004709 116.5901 28.9562 14.82468520954389 ORBCOMM FM39 1 33063U 08031D 26074.53725685 .00001271 00000+0 19038-3 0 9991 2 33063 48.4386 144.3202 0005654 82.0420 278.1137 14.80846214953994 ORBCOMM FM37 1 33064U 08031E 26074.47289116 .00001380 00000+0 20352-3 0 9991 2 33064 48.4378 132.7290 0004251 104.6877 269.2236 14.81036658954247 ORBCOMM FM40 1 33065U 08031F 26074.57446105 .00001697 00000+0 22946-3 0 9998 2 33065 48.4397 111.3770 0005223 123.7193 42.5734 14.83686230954433 VESSELSAT 1 1 37840U 11058C 26074.51428665 .00000365 00000+0 54096-4 0 9994 2 37840 19.9615 252.0013 0013570 291.6095 68.2864 14.11421921744685 ORBCOMM FM109 1 40086U 14040A 26073.65053052 .00000660 00000+0 17628-3 0 9999 2 40086 47.0027 178.4113 0001629 179.0686 181.0203 14.58732783620540 ORBCOMM FM107 1 40087U 14040B 26074.62371049 .00000470 00000+0 13573-3 0 9991 2 40087 47.0045 174.6589 0000182 144.0971 215.9927 14.58817871620764 ORBCOMM FM106 1 40088U 14040C 26074.44890190 .00000927 00000+0 18280-3 0 9992 2 40088 47.0616 335.5678 0016855 249.1724 110.7362 14.70319436623387 ORBCOMM FM111 1 40089U 14040D 26074.54420198 .00002221 00000+0 25929-3 0 9998 2 40089 46.9996 147.4332 0027682 52.1899 308.1499 14.88381054630622 ORBCOMM FM104 1 40090U 14040E 26074.43315414 .00000539 00000+0 15567-3 0 9999 2 40090 47.0042 212.4663 0015828 2.5613 357.5351 14.57176175620176 ORBCOMM FM103 1 40091U 14040F 26074.54338682 .00000538 00000+0 15048-3 0 9997 2 40091 47.0045 175.7642 0000777 96.5429 263.5545 14.58721589603711 ORBCOMM FM114 1 41179U 15081A 26074.42184023 .00000582 00000+0 15981-3 0 9991 2 41179 47.0041 85.2763 0001498 152.7358 207.3607 14.58739589544067 ORBCOMM FM119 1 41180U 15081B 26074.48984788 .00000540 00000+0 15098-3 0 9998 2 41180 47.0021 354.3163 0001276 241.7073 118.3684 14.58683935545327 ORBCOMM FM105 1 41181U 15081C 26074.54787025 .00000217 00000+0 10536-3 0 9994 2 41181 47.0028 25.6028 0000903 87.7537 272.3447 14.45498962540000 ORBCOMM FM110 1 41182U 15081D 26073.72610817 .00000761 00000+0 19775-3 0 9996 2 41182 47.0011 88.0357 0003173 338.9563 21.1192 14.58744840543837 ORBCOMM FM118 1 41183U 15081E 26074.44563343 .00000677 00000+0 17989-3 0 9999 2 41183 47.0033 84.9509 0003793 310.1871 49.8683 14.58742532544040 ORBCOMM FM112 1 41184U 15081F 26073.83216073 .00000972 00000+0 24233-3 0 9995 2 41184 47.0008 356.3498 0001157 136.9512 223.1464 14.58744675545173 ORBCOMM FM113 1 41185U 15081G 26074.49429769 .00000704 00000+0 18558-3 0 9993 2 41185 47.0023 353.5887 0000941 159.1390 200.9535 14.58744191545257 ORBCOMM FM115 1 41186U 15081H 26074.62012327 .00000702 00000+0 16928-3 0 9994 2 41186 46.9977 188.0080 0001739 243.3439 116.7270 14.63134280547515 ORBCOMM FM108 1 41187U 15081J 26074.52535696 .00000520 00000+0 14664-3 0 9996 2 41187 47.0042 264.9831 0002320 133.3941 226.7138 14.58752658546403 ORBCOMM FM117 1 41188U 15081K 26074.55943585 .00000494 00000+0 14099-3 0 9992 2 41188 47.0006 263.4875 0002782 140.9658 219.1429 14.58744037546453 ORBCOMM FM116 1 41189U 15081L 26074.47177856 .00000836 00000+0 21350-3 0 9992 2 41189 47.0041 353.6867 0002141 335.9720 24.1066 14.58742378545255